This demonstration page uses our WeatherBlox Daily Observations layout. Learn more.

Hourly Observations for April 7, 2016

Temp ( °F °C ) Dew Point ( °F °C ) Humidity (%) Winds ( mph kmh ) Pressure ( in mb ) Visibility ( mi km ) Precip ( " mm )
12:15 am 00:15 Cloudy 56 13.1 32 0.1 41 41 NNW 8 13 29.94 1014 10 16.0934 0 0
12:35 am 00:35 Cloudy 55 13 32 0.2 42 42 N 12 19 29.94 1014 10 16.0934 0 0
12:55 am 00:55 Mostly Cloudy 54 12.4 33 0.5 44 44 N 10 17 29.94 1014 10 16.0934 0 0
1:35 am 01:35 Cloudy 55 12.9 32 0 41 41 N 13 20 29.97 1015 10 16.0934 0 0
1:55 am 01:55 Cloudy 55 12.5 32 0 43 43 NNW 16 26 30 1016 10 16.0934 0 0
2:15 am 02:15 Mostly Cloudy 54 12.2 32 -0.1 43 43 N 17 28 30 1016 10 16.0934 0 0
2:35 am 02:35 Partly Cloudy 53 11.6 31 -0.5 43 43 NNW 12 19 30 1016 10 16.0934 0 0
2:55 am 02:55 Partly Cloudy 52 10.9 31 -0.4 46 46 NW 10 17 30 1016 10 16.0934 0 0
3:10 am 03:10 Clear 51 10.6 31 -0.7 46 46 NW 12 19 30 1016 10 16.0934 0 0
3:35 am 03:35 Partly Cloudy 50 10.1 31 -0.5 48 48 NW 12 19 30 1016 10 16.0934 0 0
3:55 am 03:55 Clear 50 9.9 31 -0.6 48 48 NW 14 22 30 1016 10 16.0934 0 0
4:15 am 04:15 Clear 49 9.6 31 -0.6 49 49 WNW 12 19 30 1016 10 16.0934 0 0
4:35 am 04:35 Clear 48 9 31 -0.5 52 52 WNW 12 19 30.03 1017 10 16.0934 0 0
4:55 am 04:55 Partly Cloudy 48 8.7 31 -0.5 53 53 WNW 13 20 30.03 1017 10 16.0934 0 0
5:15 am 05:15 Cloudy 49 9.3 31 -0.3 51 51 WNW 13 20 30 1016 10 16.0934 0 0
5:35 am 05:35 Mostly Cloudy 49 9.2 31 -0.3 52 52 WNW 14 22 30 1016 10 16.0934 0 0
5:55 am 05:55 Clear 47 8.5 31 -0.5 53 53 WNW 10 17 30.03 1017 10 16.0934 0 0
6:15 am 06:15 Clear 46 8 31 -0.5 55 55 WNW 10 17 30.03 1017 10 16.0934 0 0
6:35 am 06:35 Partly Cloudy 46 7.8 31 -0.5 56 56 WNW 10 17 30.06 1018 10 16.0934 0 0
6:55 am 06:55 Partly Cloudy 48 8.8 31 -0.5 52 52 NW 14 22 30.06 1018 10 16.0934 0 0
7:15 am 07:15 Sunny 49 9.5 31 -0.6 50 50 NW 17 28 30.03 1017 10 16.0934 0 0
7:35 am 07:35 Sunny 50 10.1 31 -0.7 47 47 NW 16 26 30.03 1017 10 16.0934 0 0
7:55 am 07:55 Sunny 51 10.8 30 -1 44 44 NW 20 31 30.03 1017 10 16.0934 0 0
8:15 am 08:15 Sunny 52 10.9 30 -1.3 43 43 NW 17 28 30.06 1018 10 16.0934 0 0
8:35 am 08:35 Sunny 53 11.9 30 -1.3 40 40 NW 25 41 30.06 1018 10 16.0934 0 0
8:55 am 08:55 Sunny 54 12.2 29 -1.4 39 39 NW 24 39 30.06 1018 10 16.0934 0 0
9:15 am 09:15 Sunny 55 12.5 29 -1.6 38 38 NW 24 39 30.06 1018 10 16.0934 0 0
9:35 am 09:35 Sunny 56 13.1 28 -2.1 35 35 NNW 29 46 30.06 1018 10 16.0934 0 0
9:55 am 09:55 Sunny 57 13.7 28 -2.4 33 33 NW 26 43 30.06 1018 10 16.0934 0 0
10:15 am 10:15 Partly Cloudy 57 13.8 25 -3.9 29 29 NNW 28 44 30.06 1018 10 16.0934 0 0
10:35 am 10:35 Sunny 57 13.8 24 -4.2 29 29 NNW 24 39 30.06 1018 10 16.0934 0 0
10:55 am 10:55 Sunny 58 14.4 22 -5.6 25 25 NNW 28 44 30.06 1018 10 16.0934 0 0
11:15 am 11:15 Partly Cloudy 58 14.5 21 -5.9 24 24 NNW 32 52 30.06 1018 10 16.0934 0 0
11:35 am 11:35 Partly Cloudy 59 14.9 21 -6.1 23 23 NNW 31 50 30.06 1018 10 16.0934 0 0
11:55 am 11:55 Partly Cloudy 60 15.3 20 -6.7 21 21 NNW 31 50 30.06 1018 10 16.0934 0 0
12:15 pm 12:15 Hazy 60 15.6 16 -8.8 18 18 NNW 35 56 30.06 1018 5 8.0467 0 0
12:35 pm 12:35 Partly Cloudy 60 15.7 17 -8.2 19 19 NNW 37 59 30.06 1018 10 16.0934 0 0
12:55 pm 12:55 Sunny 61 16 17 -8.1 18 18 NW 31 50 30.06 1018 10 16.0934 0 0
1:15 pm 13:15 Partly Cloudy 61 16 17 -8.3 18 18 NNW 33 54 30.06 1018 10 16.0934 0 0
1:35 pm 13:35 Partly Cloudy 61 16 16 -8.9 17 17 NNW 28 44 30.06 1018 10 16.0934 0 0
1:55 pm 13:55 Hazy 61 16.1 13 -10.6 15 15 N 30 48 30.06 1018 4 6.43736 0 0
2:15 pm 14:15 Sunny 60 15.8 13 -10.5 15 15 NNW 30 48 30.06 1018 10 16.0934 0 0
2:35 pm 14:35 Sunny 61 15.9 13 -10.5 15 15 NNW 33 54 30.06 1018 7 11.26538 0 0
2:55 pm 14:55 Sunny 61 16.1 13 -10.5 15 15 N 35 56 30.06 1018 7 11.26538 0 0
3:15 pm 15:15 Sunny 61 16.1 14 -10.1 16 16 N 32 52 30.06 1018 10 16.0934 0 0
3:35 pm 15:35 Sunny 61 16.1 13 -10.4 15 15 N 31 50 30.06 1018 10 16.0934 0 0
3:55 pm 15:55 Partly Cloudy 61 16.2 14 -10 16 16 NNW 25 41 30.06 1018 10 16.0934 0 0
4:15 pm 16:15 Partly Cloudy 62 16.5 14 -9.8 16 16 NNW 35 56 30.06 1018 10 16.0934 0 0
4:35 pm 16:35 Partly Cloudy 61 16 14 -10 16 16 NNW 26 43 30.06 1018 10 16.0934 0 0
4:55 pm 16:55 Partly Cloudy 61 16.2 14 -10.2 15 15 NNW 29 46 30.06 1018 10 16.0934 0 0
5:15 pm 17:15 Partly Cloudy 60 15.4 13 -10.3 16 16 N 26 43 30.06 1018 10 16.0934 0 0
5:35 pm 17:35 Sunny 60 15.5 13 -10.4 16 16 NNW 30 48 30.06 1018 10 16.0934 0 0
5:55 pm 17:55 Sunny 59 15.1 14 -10.2 17 17 NNW 28 44 30.06 1018 10 16.0934 0 0
6:15 pm 18:15 Sunny 59 14.9 14 -10 17 17 NNW 23 37 30.06 1018 10 16.0934 0 0
6:35 pm 18:35 Sunny 58 14.6 14 -9.8 18 18 NNW 21 33 30.06 1018 10 16.0934 0 0
6:55 pm 18:55 Sunny 58 14.5 15 -9.6 18 18 N 17 28 30.06 1018 10 16.0934 0 0
7:15 pm 19:15 Sunny 57 14.1 13 -10.3 18 18 N 21 33 30.09 1019 10 16.0934 0 0
7:35 pm 19:35 Sunny 56 13.5 14 -9.9 19 19 N 15 24 30.12 1020 10 16.0934 0 0
7:55 pm 19:55 Sunny 55 12.8 14 -10 20 20 N 14 22 30.12 1020 10 16.0934 0 0
8:15 pm 20:15 Clear 52 11.1 15 -9.5 23 23 N 7 11 30.12 1020 10 16.0934 0 0
8:35 pm 20:35 Clear 50 9.8 16 -9.1 26 26 N 8 13 30.15 1021 10 16.0934 0 0
8:55 pm 20:55 Clear 46 7.6 15 -9.7 28 28 N 7 11 30.15 1021 10 16.0934 0 0
9:15 pm 21:15 Clear 44 6.8 15 -9.4 31 31 N 5 7 30.18 1022 7 11.26538 0 0
9:35 pm 21:35 Clear 43 6.1 15 -9.5 32 32 NNW 5 7 30.18 1022 10 16.0934 0 0
9:55 pm 21:55 Clear 43 5.9 14 -9.8 32 32 N 6 9 30.18 1022 10 16.0934 0 0
10:15 pm 22:15 Hazy 41 4.9 15 -9.4 35 35 NW 5 7 30.18 1022 5 8.0467 0 0
10:35 pm 22:35 Clear 41 4.9 15 -9.4 35 35 NNW 7 11 30.18 1022 10 16.0934 0 0
10:55 pm 22:55 Clear 37 2.6 14 -10 39 39 WNW 5 7 30.21 1023 10 16.0934 0 0
11:15 pm 23:15 Clear 38 3.1 15 -9.6 39 39 WNW 5 7 30.21 1023 10 16.0934 0 0
11:35 pm 23:35 Clear 38 3.6 15 -9.4 38 38 W 6 9 30.21 1023 10 16.0934 0 0
11:55 pm 23:55 Clear 39 4 15 -9.4 37 37 W 7 11 30.18 1022 10 16.0934 0 0

Powered by AerisWeather